{"data":{"norad_id":47981,"intl_designator":"2021-024E","name":"STARLINK-2303","alt_names":[],"object_type":"PAYLOAD","status":"ACTIVE","operator":null,"country":"US","launch_date":"2021-03-24","launch_site_code":"AFETR","launch_vehicle":null,"mission":null,"orbit_class":"UNKNOWN","rcs_meters":null,"size_class":null,"mass_kg":null,"dimensions":null,"purposes":["comms"],"wikipedia_slug":null,"has_3d_model":false,"image_url":null,"decayed_at":null,"tle_current":{"epoch":"2026-05-24T22:01:32.147616Z","epoch_age_seconds":92710,"freshness":"FRESH","line1":"1 47981U 21024E   26144.91773319 -.00002069  00000+0 -54924-4 0  9991","line2":"2 47981  53.1597 337.9128 0001115  85.3779 274.7349 15.31698637286305","mean_motion":15.31698637,"eccentricity":0.0001115,"inclination_deg":53.1597,"raan_deg":337.9128,"arg_perigee_deg":85.3779,"mean_anomaly_deg":274.7349,"bstar":-5.4924e-5,"rev_number":28630,"period_min":94.013271619827,"perigee_km":469.98040802274,"apogee_km":471.50770849873,"semimajor_km":6848.8810582607,"source":"CELESTRAK","updated_at":"2026-05-25T13:38:16.638513Z"}}}